DLH14G EDDL-EDDN

Flight info

Callsign DLH14G
Flight time 0h 42m
Altitude 23000
Route KUMIK4H KUMIK L603 TESGA Z719 ETOLU Z723 KOMIB T193 ERTES T194 DODAS DODAS1V
Aircraft A21N/M-SDE3FGHIRWY/LB1

Departure

Time 2026-05-04 19:56
Airport Düsseldorf Airport (EDDL)

Arrival

Time 2026-05-04 20:39
Airport Nuremberg Airport (EDDN)
Time Latitude Longitude Altitude Speed Heading
2026-05-04 18:42 51.28155 6.76733 132 ft 0 kts 274°
2026-05-04 19:27 51.28155 6.76732 131 ft 0 kts 274°
2026-05-04 19:27 51.28155 6.76730 131 ft 0 kts 274°
2026-05-04 19:29 51.28155 6.76752 132 ft 2 kts 274°
2026-05-04 19:30 51.28154 6.76776 132 ft 2 kts 274°
2026-05-04 19:30 51.28153 6.76800 133 ft 2 kts 270°
2026-05-04 19:30 51.28157 6.76822 133 ft 2 kts 231°
2026-05-04 19:30 51.28169 6.76837 133 ft 2 kts 199°
2026-05-04 19:31 51.28184 6.76840 133 ft 2 kts 180°
2026-05-04 19:31 51.28199 6.76842 132 ft 2 kts 188°
2026-05-04 19:31 51.28213 6.76845 131 ft 2 kts 185°
2026-05-04 19:31 51.28228 6.76847 131 ft 2 kts 186°
2026-05-04 19:32 51.28244 6.76849 130 ft 2 kts 176°
2026-05-04 19:32 51.28258 6.76846 130 ft 2 kts 169°
2026-05-04 19:32 51.28273 6.76839 129 ft 2 kts 159°
2026-05-04 19:32 51.28287 6.76829 129 ft 2 kts 150°
2026-05-04 19:33 51.28299 6.76816 128 ft 2 kts 141°
2026-05-04 19:33 51.28311 6.76801 128 ft 2 kts 143°
2026-05-04 19:33 51.28323 6.76787 127 ft 2 kts 143°
2026-05-04 19:33 51.28328 6.76781 127 ft 0 kts 142°
2026-05-04 19:36 51.28323 6.76787 127 ft 2 kts 143°
2026-05-04 19:36 51.28312 6.76819 128 ft 4 kts 103°
2026-05-04 19:37 51.28341 6.76866 127 ft 8 kts 12°
2026-05-04 19:37 51.28395 6.76840 127 ft 9 kts 324°
2026-05-04 19:37 51.28452 6.76775 126 ft 10 kts 334°
2026-05-04 19:37 51.28511 6.76823 126 ft 10 kts 54°
2026-05-04 19:38 51.28556 6.76919 126 ft 11 kts 53°
2026-05-04 19:38 51.28610 6.77032 125 ft 13 kts 52°
2026-05-04 19:38 51.28671 6.77161 123 ft 15 kts 53°
2026-05-04 19:38 51.28733 6.77292 125 ft 14 kts 52°
2026-05-04 19:39 51.28798 6.77426 124 ft 16 kts 53°
2026-05-04 19:39 51.28867 6.77572 123 ft 15 kts 53°
2026-05-04 19:39 51.28933 6.77709 124 ft 15 kts 52°
2026-05-04 19:39 51.28998 6.77846 124 ft 16 kts 53°
2026-05-04 19:40 51.29063 6.77982 126 ft 14 kts 53°
2026-05-04 19:40 51.29126 6.78116 127 ft 15 kts 53°
2026-05-04 19:40 51.29191 6.78246 129 ft 14 kts 43°
2026-05-04 19:40 51.29265 6.78335 132 ft 12 kts 36°
2026-05-04 19:41 51.29328 6.78408 135 ft 8 kts 36°
2026-05-04 19:41 51.29349 6.78432 136 ft 0 kts 36°
2026-05-04 19:43 51.29353 6.78436 136 ft 2 kts 36°
2026-05-04 19:43 51.29378 6.78460 137 ft 6 kts 22°
2026-05-04 19:43 51.29384 6.78463 137 ft 0 kts 16°
2026-05-04 19:55 51.29401 6.78468 137 ft 6 kts
2026-05-04 19:55 51.29479 6.78454 139 ft 12 kts 325°
2026-05-04 19:55 51.29469 6.78367 137 ft 12 kts 236°
2026-05-04 19:56 51.29363 6.78139 130 ft 53 kts 232°
2026-05-04 19:56 51.28983 6.77342 124 ft 124 kts 232°
2026-05-04 19:56 51.28337 6.76003 230 ft 170 kts 230°
2026-05-04 19:56 51.27626 6.74522 950 ft 169 kts 232°
2026-05-04 19:57 51.26939 6.73019 1693 ft 171 kts 232°
2026-05-04 19:57 51.26208 6.71436 1963 ft 191 kts 231°
2026-05-04 19:57 51.25352 6.69685 2209 ft 209 kts 230°
2026-05-04 19:57 51.24395 6.67793 2450 ft 231 kts 229°
2026-05-04 19:58 51.23313 6.65762 2682 ft 252 kts 230°
2026-05-04 19:58 51.21973 6.63979 3225 ft 258 kts 200°
2026-05-04 19:58 51.20198 6.63756 3998 ft 257 kts 176°
2026-05-04 19:58 51.18457 6.63995 4879 ft 253 kts 176°
2026-05-04 19:59 51.16719 6.64234 5658 ft 254 kts 175°
2026-05-04 19:59 51.15035 6.64982 6237 ft 263 kts 148°
2026-05-04 19:59 51.13845 6.67227 6831 ft 274 kts 120°
2026-05-04 19:59 51.13211 6.70117 7548 ft 281 kts 99°
2026-05-04 20:00 51.13213 6.73217 8276 ft 283 kts 91°
2026-05-04 20:00 51.13301 6.76321 8889 ft 288 kts 90°
2026-05-04 20:00 51.13411 6.79549 9306 ft 292 kts 91°
2026-05-04 20:00 51.13531 6.82795 9601 ft 298 kts 90°
2026-05-04 20:01 51.13649 6.86083 10235 ft 299 kts 90°
2026-05-04 20:01 51.13768 6.89392 10730 ft 307 kts 90°
2026-05-04 20:01 51.13893 6.92888 11004 ft 322 kts 90°
2026-05-04 20:01 51.14022 6.96507 11275 ft 337 kts 89°
2026-05-04 20:02 51.14160 7.00282 11531 ft 351 kts 89°
2026-05-04 20:02 51.14302 7.04253 11775 ft 364 kts 89°
2026-05-04 20:02 51.14447 7.08348 12025 ft 377 kts 89°
2026-05-04 20:02 51.14594 7.12496 12432 ft 383 kts 89°
2026-05-04 20:03 51.14742 7.16738 12952 ft 386 kts 89°
2026-05-04 20:03 51.14891 7.21014 13468 ft 389 kts 89°
2026-05-04 20:03 51.15038 7.25298 13970 ft 392 kts 89°
2026-05-04 20:03 51.15188 7.29677 14458 ft 395 kts 89°
2026-05-04 20:04 51.15332 7.33997 14928 ft 398 kts 89°
2026-05-04 20:04 51.15349 7.38413 15363 ft 398 kts 99°
2026-05-04 20:04 51.14482 7.42540 15761 ft 395 kts 121°
2026-05-04 20:04 51.12923 7.46128 16258 ft 394 kts 131°
2026-05-04 20:05 51.11074 7.49261 16671 ft 395 kts 137°
2026-05-04 20:05 51.09100 7.52366 17102 ft 398 kts 137°
2026-05-04 20:05 51.07158 7.55515 17511 ft 401 kts 135°
2026-05-04 20:05 51.05259 7.58718 17921 ft 403 kts 135°
2026-05-04 20:06 51.03347 7.61992 18327 ft 405 kts 135°
2026-05-04 20:06 51.01447 7.65259 18723 ft 407 kts 135°
2026-05-04 20:06 50.99504 7.68602 19111 ft 409 kts 135°
2026-05-04 20:06 50.97575 7.71920 19493 ft 411 kts 136°
2026-05-04 20:07 50.95648 7.75228 19858 ft 413 kts 136°
2026-05-04 20:07 50.93711 7.78550 20207 ft 415 kts 136°
2026-05-04 20:07 50.91749 7.81912 20540 ft 418 kts 136°
2026-05-04 20:07 50.89781 7.85278 20867 ft 420 kts 136°
2026-05-04 20:08 50.87716 7.88804 21209 ft 422 kts 136°
2026-05-04 20:08 50.85681 7.92279 21550 ft 424 kts 136°
2026-05-04 20:08 50.83651 7.95736 21884 ft 426 kts 136°
2026-05-04 20:08 50.81593 7.99237 22201 ft 428 kts 136°
2026-05-04 20:09 50.79522 8.02753 22509 ft 430 kts 136°
2026-05-04 20:09 50.77474 8.06219 22804 ft 431 kts 136°
2026-05-04 20:09 50.75404 8.09721 22974 ft 433 kts 136°
2026-05-04 20:09 50.73338 8.13211 22978 ft 434 kts 136°
2026-05-04 20:10 50.71284 8.16676 22978 ft 433 kts 136°
2026-05-04 20:10 50.69236 8.20130 22979 ft 434 kts 136°
2026-05-04 20:10 50.67171 8.23609 22980 ft 434 kts 136°
2026-05-04 20:10 50.65122 8.27057 22976 ft 435 kts 136°
2026-05-04 20:11 50.63047 8.30539 22976 ft 435 kts 136°
2026-05-04 20:11 50.60990 8.34003 22974 ft 435 kts 136°
2026-05-04 20:11 50.58929 8.37490 22972 ft 436 kts 136°
2026-05-04 20:11 50.56869 8.40977 22971 ft 435 kts 136°
2026-05-04 20:12 50.54808 8.44463 22971 ft 435 kts 136°
2026-05-04 20:12 50.52769 8.47907 22969 ft 435 kts 136°
2026-05-04 20:12 50.50707 8.51383 22969 ft 435 kts 136°
2026-05-04 20:12 50.48652 8.54836 22967 ft 435 kts 136°
2026-05-04 20:13 50.46596 8.58289 22966 ft 435 kts 136°
2026-05-04 20:13 50.44478 8.61677 22965 ft 434 kts 139°
2026-05-04 20:13 50.42260 8.64870 22969 ft 433 kts 141°
2026-05-04 20:13 50.39999 8.67949 22965 ft 432 kts 142°
2026-05-04 20:14 50.37758 8.71016 22963 ft 432 kts 142°
2026-05-04 20:14 50.35495 8.74106 22963 ft 433 kts 142°
2026-05-04 20:14 50.33204 8.77227 22960 ft 433 kts 142°
2026-05-04 20:14 50.30959 8.80296 22961 ft 433 kts 141°
2026-05-04 20:15 50.28909 8.83784 22956 ft 437 kts 130°
2026-05-04 20:15 50.27273 8.87786 22958 ft 441 kts 121°
2026-05-04 20:15 50.26059 8.92149 22960 ft 444 kts 112°
2026-05-04 20:15 50.25050 8.96724 22958 ft 445 kts 111°
2026-05-04 20:16 50.24080 9.01310 22957 ft 445 kts 111°
2026-05-04 20:16 50.23107 9.05894 22958 ft 445 kts 111°
2026-05-04 20:16 50.22127 9.10445 22956 ft 445 kts 111°
2026-05-04 20:16 50.21131 9.15014 22955 ft 445 kts 111°
2026-05-04 20:17 50.20139 9.19536 22955 ft 445 kts 111°
2026-05-04 20:17 50.19186 9.24128 22952 ft 447 kts 108°
2026-05-04 20:17 50.18515 9.28875 22954 ft 449 kts 102°
2026-05-04 20:17 50.18176 9.33687 22955 ft 452 kts 95°
2026-05-04 20:18 50.18142 9.38619 22960 ft 453 kts 91°
2026-05-04 20:18 50.18216 9.43468 22959 ft 453 kts 90°
2026-05-04 20:18 50.18308 9.48381 22960 ft 453 kts 90°
2026-05-04 20:18 50.18385 9.53282 22962 ft 452 kts 90°
2026-05-04 20:19 50.18447 9.58133 22963 ft 452 kts 91°
2026-05-04 20:19 50.18111 9.62974 22931 ft 446 kts 108°
2026-05-04 20:19 50.16767 9.67256 22964 ft 440 kts 127°
2026-05-04 20:19 50.14968 9.71052 22968 ft 439 kts 130°
2026-05-04 20:20 50.13094 9.74837 22749 ft 438 kts 130°
2026-05-04 20:20 50.11289 9.78644 22493 ft 436 kts 128°
2026-05-04 20:20 50.09557 9.82475 22241 ft 434 kts 127°
2026-05-04 20:20 50.07864 9.86319 21990 ft 433 kts 127°
2026-05-04 20:21 50.06103 9.90144 21735 ft 431 kts 130°
2026-05-04 20:21 50.04249 9.93759 21479 ft 429 kts 132°
2026-05-04 20:21 50.00489 10.00897 20878 ft 425 kts 131°
2026-05-04 20:22 49.98653 10.04451 20483 ft 423 kts 131°
2026-05-04 20:22 49.96826 10.08019 20017 ft 420 kts 130°
2026-05-04 20:22 49.95025 10.11546 19510 ft 417 kts 130°
2026-05-04 20:22 49.93246 10.15024 19008 ft 413 kts 130°
2026-05-04 20:23 49.91470 10.18489 18486 ft 409 kts 130°
2026-05-04 20:23 49.89702 10.21941 17980 ft 406 kts 130°
2026-05-04 20:23 49.87965 10.25325 17468 ft 403 kts 130°
2026-05-04 20:23 49.86234 10.28694 16969 ft 400 kts 130°
2026-05-04 20:24 49.84520 10.32029 16449 ft 398 kts 130°
2026-05-04 20:24 49.82806 10.35354 15934 ft 395 kts 130°
2026-05-04 20:24 49.81101 10.38658 15422 ft 392 kts 130°
2026-05-04 20:24 49.79411 10.41929 14912 ft 390 kts 130°
2026-05-04 20:25 49.77728 10.45183 14403 ft 387 kts 130°
2026-05-04 20:25 49.76052 10.48423 13892 ft 385 kts 130°
2026-05-04 20:25 49.74386 10.51635 13384 ft 383 kts 130°
2026-05-04 20:25 49.72744 10.54794 12883 ft 380 kts 130°
2026-05-04 20:26 49.71096 10.57965 12379 ft 378 kts 130°
2026-05-04 20:26 49.69477 10.61130 11881 ft 376 kts 130°
2026-05-04 20:26 49.67870 10.64307 11368 ft 374 kts 129°
2026-05-04 20:26 49.66270 10.67470 10859 ft 371 kts 130°
2026-05-04 20:27 49.64716 10.70596 10422 ft 366 kts 127°
2026-05-04 20:27 49.63511 10.74029 10041 ft 362 kts 114°
2026-05-04 20:27 49.62812 10.77664 9718 ft 355 kts 103°
2026-05-04 20:27 49.62441 10.81344 9686 ft 339 kts 100°
2026-05-04 20:28 49.62132 10.84871 9651 ft 323 kts 100°
2026-05-04 20:28 49.61834 10.88211 9596 ft 307 kts 100°
2026-05-04 20:28 49.61543 10.91354 9537 ft 294 kts 101°
2026-05-04 20:28 49.61245 10.94457 9306 ft 290 kts 101°
2026-05-04 20:29 49.60947 10.97524 9053 ft 289 kts 101°
2026-05-04 20:29 49.60646 11.00603 8791 ft 289 kts 100°
2026-05-04 20:29 49.60348 11.03646 8547 ft 288 kts 100°
2026-05-04 20:29 49.60052 11.06664 8303 ft 286 kts 100°
2026-05-04 20:30 49.59757 11.09681 8055 ft 285 kts 100°
2026-05-04 20:30 49.59457 11.12718 7912 ft 284 kts 100°
2026-05-04 20:30 49.59163 11.15685 7798 ft 284 kts 100°
2026-05-04 20:30 49.58865 11.18700 7637 ft 280 kts 100°
2026-05-04 20:31 49.58573 11.21659 7273 ft 280 kts 100°
2026-05-04 20:31 49.58279 11.24591 6881 ft 280 kts 99°
2026-05-04 20:31 49.57983 11.27551 6522 ft 278 kts 99°
2026-05-04 20:31 49.57694 11.30434 6174 ft 276 kts 99°
2026-05-04 20:32 49.57401 11.33344 5810 ft 275 kts 99°
2026-05-04 20:32 49.57106 11.36259 5445 ft 273 kts 98°
2026-05-04 20:32 49.56814 11.39137 5106 ft 271 kts 99°
2026-05-04 20:32 49.56218 11.41862 4924 ft 270 kts 122°
2026-05-04 20:33 49.54924 11.43873 4553 ft 270 kts 149°
2026-05-04 20:33 49.53139 11.44739 4135 ft 270 kts 178°
2026-05-04 20:33 49.51330 11.44424 4027 ft 258 kts 192°
2026-05-04 20:33 49.49620 11.43844 4011 ft 242 kts 194°
2026-05-04 20:34 49.48143 11.42857 3972 ft 224 kts 223°
2026-05-04 20:34 49.47300 11.41036 4009 ft 199 kts 252°
2026-05-04 20:34 49.46992 11.39021 4076 ft 192 kts 266°
2026-05-04 20:34 49.46992 11.36993 4044 ft 189 kts 276°
2026-05-04 20:35 49.47172 11.35016 4028 ft 189 kts 282°
2026-05-04 20:35 49.47404 11.33009 3978 ft 189 kts 282°
2026-05-04 20:35 49.47621 11.31025 3763 ft 188 kts 281°
2026-05-04 20:35 49.47819 11.29036 3513 ft 187 kts 281°
2026-05-04 20:36 49.48000 11.27123 3255 ft 177 kts 282°
2026-05-04 20:36 49.48164 11.25369 3104 ft 156 kts 282°
2026-05-04 20:36 49.48320 11.23732 2823 ft 154 kts 282°
2026-05-04 20:36 49.48475 11.22127 2601 ft 150 kts 282°
2026-05-04 20:37 49.48621 11.20544 2410 ft 148 kts 281°
2026-05-04 20:37 49.48768 11.19000 2271 ft 147 kts 281°
2026-05-04 20:37 49.48918 11.17441 2085 ft 147 kts 280°
2026-05-04 20:37 49.49068 11.15878 1858 ft 149 kts 280°
2026-05-04 20:38 49.49218 11.14302 1658 ft 149 kts 280°
2026-05-04 20:38 49.49378 11.12752 1466 ft 148 kts 281°
2026-05-04 20:38 49.49531 11.11183 1291 ft 146 kts 280°
2026-05-04 20:38 49.49680 11.09654 1104 ft 145 kts 280°
2026-05-04 20:39 49.49829 11.08216 1033 ft 109 kts 279°
2026-05-04 20:39 49.49910 11.07396 1022 ft 63 kts 279°
2026-05-04 20:39 49.49908 11.06933 1021 ft 28 kts 227°
2026-05-04 20:39 49.49785 11.06935 1019 ft 13 kts 140°
2026-05-04 20:40 49.49753 11.07060 1019 ft 12 kts 100°
2026-05-04 20:40 49.49738 11.07181 1020 ft 6 kts 103°
2026-05-04 20:40 49.49711 11.07227 1020 ft 6 kts 169°
2026-05-04 20:40 49.49666 11.07223 1020 ft 6 kts 174°
2026-05-04 20:41 49.49636 11.07273 1020 ft 7 kts 102°
2026-05-04 20:41 49.49627 11.07356 1020 ft 8 kts 99°
2026-05-04 20:41 49.49617 11.07452 1019 ft 9 kts 98°
2026-05-04 20:41 49.49607 11.07556 1021 ft 9 kts 98°
2026-05-04 20:42 49.49597 11.07652 1022 ft 8 kts 98°
2026-05-04 20:42 49.49582 11.07727 1024 ft 6 kts 142°
2026-05-04 20:42 49.49540 11.07729 1024 ft 3 kts 190°
2026-05-04 20:42 49.49527 11.07726 1024 ft 0 kts 188°